Flag for U.S.A. Weather past 2 weeks in El Paso, Texas, U.S.A.

Now
90 °F

Passing clouds.


Feels Like: 87 °F
Forecast: 69 / 93 °F
Wind: 3 mph from North

Location: El Paso International Airport

Current Time: Aug 21, 2014 at 3:01:59 PM

Latest Report: Aug 21, 2014 at 1:51 PM


Visibility: 10 mi

Pressure: 29.81 "Hg

Humidity: 25%

Dew point: 50 °F

Location of El PasoLocation

Historic Weather in El Paso — Graph

°F

El Paso temperature yesterday

Maximum temperature yesterday: 91 °F (at 4:51 PM)
Minimum temperature yesterday: 69 °F (at 6:51 AM)
Average temperature yesterday: 80 °F

Past Weeks' High & Low Weather Summary

 TemperatureHumidityPressure
High96 °F (Aug 16, 4:51 PM)81% (Aug 8, 1:51 AM)30.19 "Hg (Aug 8, 1:51 AM)
Low69 °F (Aug 9, 6:51 AM)19% (Aug 16, 4:51 PM)29.65 "Hg (Aug 19, 3:51 PM)
Average80 °F48%29.86 "Hg
* Reported Aug 6 1:51 PM — Aug 21 1:51 PM, El Paso, Weather by CustomWeather, © 2014

Note: Actual official high and low records may vary slightly from our data, if they occured in-between our weather recording intervals... More about our weather records

Advertising

El Paso weather history for previous 24 hours

 ConditionsComfort  
Time TempWeatherWind HumidityBarometerVisibility
1:51 PM
Aug 21
90 °FPassing clouds.3 mph25%29.81 "Hg10 mi
12:51 PM89 °FPassing clouds.10 mph26%29.83 "Hg10 mi
11:51 AM89 °FPassing clouds.12 mph26%29.85 "Hg10 mi
10:51 AM84 °FPassing clouds.12 mph33%29.85 "Hg10 mi
9:51 AM82 °FPassing clouds.9 mph35%29.85 "Hg10 mi
8:51 AM77 °FPassing clouds.6 mph42%29.85 "Hg10 mi
7:51 AM73 °FPassing clouds.3 mph46%29.84 "Hg10 mi
6:51 AM70 °FPassing clouds.6 mph49%29.83 "Hg10 mi
5:51 AM70 °FPassing clouds.3 mph47%29.80 "Hg10 mi
4:51 AM72 °FPassing clouds.7 mph44%29.79 "Hg10 mi
3:51 AM80 °FPassing clouds.10 mph31%29.77 "Hg10 mi
2:51 AM81 °FPassing clouds.7 mph28%29.76 "Hg10 mi
1:51 AM81 °FPassing clouds.15 mph27%29.76 "Hg10 mi
12:51 AM81 °FPassing clouds.8 mph32%29.76 "Hg10 mi
11:51 PM
Aug 20
82 °FClear.16 mph29%29.77 "Hg10 mi
10:51 PM84 °FClear.14 mph26%29.76 "Hg10 mi
9:51 PM85 °FPassing clouds.14 mph24%29.76 "Hg10 mi
8:51 PM86 °FPassing clouds.13 mph24%29.74 "Hg10 mi
7:51 PM88 °FPassing clouds.9 mph24%29.71 "Hg10 mi
6:51 PM90 °FPassing clouds.8 mph24%29.70 "Hg10 mi
5:51 PM91 °FScattered clouds.10 mph25%29.70 "Hg10 mi
4:51 PM91 °FScattered clouds.7 mph25%29.69 "Hg10 mi
3:51 PM90 °FScattered clouds.9 mph28%29.72 "Hg10 mi
Weather by CustomWeather, © 2014

See weather overviewHow to use our weather pages